Starlink 33732

operational
NORAD ID: 63575 Int'l Des: 2025-076 Owner: SPXS Country: US Constellation: starlink
LEOCIRCULAR

About Starlink 33732

Description loading...

Live Position

Loading 3D Globe...

Upcoming Passes

Altitude History

Altitude vs Time

uPlot chart will show altitude changes over time

Two-Line Element Set

1 63575U 25076G 26035.63656433 .00027473 00000-0 10033-2 0 9990
2 63575 43.0033 148.5183 0002702 285.0923 74.9629 15.27605710 46776
Epoch: Feb 4, 2026 • Age: 22 hours

Current Status

Altitude 494.1 km
Velocity 7.62 km/s
Sub-Earth Point -42.52°S, 96.42°E
Launch Date Apr 14, 2025
Age 0.8 years
Type internet

Technical Details

Classification Payload
Mass 575.00 kg
Dry Mass 530.00 kg
Total Mass 575.00 kg
Length 0.30 m
Diameter 4.10 m
Span 29.00 m
Shape Box + pan
Manufacturer SPXS
Bus Type Starlink V2MO
Phase Status In Orbit
Owner/State SPXS/US

Large Constellations

Loading constellations...